Location: Hilton Head Island
(32.2163°N, 80.7526°W)
Time: 01:04:21
(UTC-04:00)

A-11 Canister half - Pass Details

Date: 24 February 2026
Orbit: 1524 x 1683 km, 47.3° (Epoch: 14 March)

Event Time Altitude Azimuth Distance (km) Brightness Sun altitude
Rises 22:04:28 0° 305° (NW) 4,674 12.2 -48.0°
Reaches altitude 10° 22:07:32 10° 302° (WNW) 3,691 11.5 -48.6°
Enters shadow 22:12:29 35° 289° (WNW) 2,267 10.0 -49.6°
